Location: Praha
(50.0830°N, 14.4670°E)
Time: 12:31:24
(UTC+01:00)

ISS - Pass Details

Date: 24 February 2019
Orbit: 406 x 411 km, 51.6° (Epoch: 20 March)

Event Time Altitude Azimuth Distance (km) Brightness Sun altitude
Rises 05:37:19 0° 197° (SSW) 2,314 -0.2 -13.4°
Reaches altitude 10° 05:40:09 10° 170° (S) 1,460 -0.9 -13.0°
Maximum altitude 05:41:52 14° 138° (SE) 1,262 -0.7 -12.7°
Drops below altitude 10° 05:43:36 10° 106° (ESE) 1,466 0.3 -12.4°
Sets 05:46:27 0° 79° (E) 2,332 1.9 -12.0°
